Regional Weather Roundup
Issued by NWS

Home | Current Version | Previous Version | Text Only | Print | Product List | Glossary Off
Versions: 1 2 3 4 5 6 7 8 9 10 11 12 13 14 15 16 17 18 19 20 21 22 23 24 25 26 27 28 29 30 31 32 33 34 35 36 37 38 39 40 41 42 43 44 45 46 47 48 49 50

000
ASUS43 KLOT 020512
RWRIL

ILLINOIS REGIONAL WEATHER ROUNDUP
NATIONAL WEATHER SERVICE CHICAGO/ROMEOVILLE IL
1200 AM CDT TUE JUN 02 2015

NOTE: "FAIR" INDICATES FEW OR NO CLOUDS BELOW 12,000 FEET WITH NO
SIGNIFICANT WEATHER AND/OR OBSTRUCTIONS TO VISIBILITY.

* THESE STATIONS ARE NOT UNDER NWS QUALITY CONTROL. THEY ALSO MAY NOT
  REPORT WEATHER SUCH AS PRECIPITATION OR FOG.

ILZ001-002-007-009-015-016-024-020600-
NORTHWEST ILLINOIS

CITY           SKY/WX    TMP DP  RH WIND       PRES   REMARKS
MOLINE         MOCLDY    57  47  69 E9        30.16S
STERLING*      FAIR      52  43  71 E9        30.19F
SAVANNA*       CLEAR     53  41  63 E3        30.18S
$$

ILZ003-004-008-010-011-017-018-020600-
NORTH CENTRAL ILLINOIS

CITY           SKY/WX    TMP DP  RH WIND       PRES   REMARKS
ROCKFORD       PTCLDY    50  36  58 E5        30.23S
FREEPORT*      CLEAR     46  40  79 E7        30.21F
ROCHELLE*      CLEAR     49  39  67 E6        30.21S
DE KALB*       CLEAR     45  37  74 E3        30.21F
PERU*          CLEAR     53  41  64 E10       30.19F
$$

ILZ005-006-012>014-019>023-020600-
NORTHEAST ILLINOIS

CITY           SKY/WX    TMP DP  RH WIND       PRES   REMARKS
CHICAGO-OHARE  CLEAR     47  36  65 NE5       30.20F
CHICAGO-MIDWAY CLEAR     50  38  63 NE5       30.19F
AURORA         CLEAR     49  35  58 CALM      30.20F
LANSING*       CLEAR     46  38  73 CALM      30.20F
JOLIET*        CLEAR     49  39  67 CALM      30.20F
WAUKEGAN       CLEAR     41  38  89 CALM      30.20F
DUPAGE AIRPORT CLEAR     46  36  68 NE6       30.19F
KANKAKEE*      MOCLDY    47  41  80 NE6       30.19F
WHEELING       CLEAR     46  37  71 CALM      30.22F
MORRIS*        CLEAR     49  38  65 CALM      30.16F
ROMEOVILLE*    CLEAR     46  37  69 NE5       30.19F
NORTHERLY ISL    N/A     47  39  74 N5          N/A
$$

LMZ740>746-020600-
SOUTHERN LAKE MICHIGAN

STATION/POSITION SKY/WX   TEMP    WIND        PRES    VSBY  WAVE
                          AIR SEA DIR/SP/G                  HT/PER
                          (F)     (DEG/KT/KT) (MB)    (MI)  (FT/S)
SOUTHERN BUOY              41 38   20/  6/  6 1023.4F         1/ 4
HARRISON CRIB              48     350/  7/  8   N/A
BURNHAM HARBOR             47     350/  4/  8   N/A
CALUMET HARBOR             48     360/  4/  6   N/A
BURNS HARBOR                      340/  4/ 23 1023.0F
MICHIGAN CITY              50     360/  3/  4   N/A
MICHIGAN CITY 6N           48 56  350/  4/  6   N/A           2/ 4
ST. JOSEPH                 53 55  120/  6/  8   N/A           2/ 4
$$

ILZ025>027-034>036-040-047-049-050-058-095>099-020600-
WEST-CENTRAL ILLINOIS

CITY           SKY/WX    TMP DP  RH WIND       PRES   REMARKS
QUINCY         CLEAR     57  55  93 NE3       30.15S
GALESBURG*     CLEAR     56  53  89 CALM      30.16S
MACOMB*        CLEAR     55  53  94 SE3       30.18S
JACKSONVILLE*  CLEAR     56  53  91 E5        30.15S
PITTSFIELD*    CLEAR     57  55  90 NE3       30.15F
$$

ILZ028>032-037-038-041>044-048-051>054-059>061-020600-
CENTRAL ILLINOIS

CITY           SKY/WX    TMP DP  RH WIND       PRES   REMARKS
PONTIAC        CLEAR     51  45  79 NE8       30.19S
BLOOMINGTON    CLEAR     52  49  89 NE9       30.18F
DECATUR        CLEAR     54  52  93 NE6       30.15F
PEORIA         CLEAR     54  50  86 NE7       30.16F
LACON*         CLEAR     54  47  78 E12       30.17F
LINCOLN*       CLEAR     55  51  89 CALM      30.14F
SPRINGFIELD    CLEAR     56  52  86 NE5       30.15F
TAYLORVILLE    CLEAR     55  54  94 NE7       30.14F
$$

ILZ033-039-045-046-055>057-062-063-020600-
EAST-CENTRAL ILLINOIS

CITY           SKY/WX    TMP DP  RH WIND       PRES   REMARKS
CHAMPAIGN      PTCLDY    58  53  84 NE7       30.16S
DANVILLE*      CLEAR     56  52  88 NE5       30.15S
RANTOUL*       CLOUDY    58  50  75 NE10      30.16F
MATTOON        CLEAR     56  52  86 NE3       30.14S
PARIS*         CLEAR     55  53  90 NE5       30.16S
$$

ILZ079-100>102-020600-
SOUTHWEST ILLINOIS

CITY           SKY/WX    TMP DP  RH WIND       PRES   REMARKS
ALTON          CLOUDY    62  62 100 NE3       30.13F
BELLEVILLE     PTCLDY    60  59  99 E2        30.12F
CAHOKIA*       CLOUDY    63  57  81 CALM      30.12F
SPARTA*        CLOUDY    59  56  89 CALM      30.14S
$$

ILZ064>066-069>071-074>076-080>082-084>086-088>090-092>094-020600-
SOUTH-CENTRAL ILLINOIS

CITY           SKY/WX    TMP DP  RH WIND       PRES   REMARKS
CARBONDALE     CLOUDY    60  54  80 NE5       30.12F
CAIRO*         CLOUDY    60  58  90 N6        30.11F
EFFINGHAM*     CLEAR     55  52  91 CALM      30.16S FOG
MARION         CLOUDY    61  55  82 NE3       30.13F
MT. VERNON     CLOUDY    59  52  77 CALM      30.14F
CENTRALIA*     CLOUDY    59  55  84 CALM      30.13F
SALEM*         CLOUDY    61  57  88 CALM      30.14F
$$

ILZ067-068-072-073-078-083-087-091-020600-
SOUTHEAST ILLINOIS

CITY           SKY/WX    TMP DP  RH WIND       PRES   REMARKS
LAWRENCEVILLE  CLOUDY    59  52  77 E10       30.14F
FLORA*         MOCLDY    59  55  85 CALM      30.14F
FAIRFIELD*     CLOUDY    60  55  84 NE7       30.12F
HARRISBURG*    CLOUDY    60  55  86 NE6       30.13F
ROBINSON*      CLOUDY    58  54  84 E5        30.16S
CARMI*         CLOUDY    61  52  72 NE5       30.12F
$$

ABBREVIATIONS USED IN REMARKS
   TC - TEMPERATURE IN CELSIUS
  WCI - WIND CHILL INDEX
   HX - HEAT INDEX
  VSB - VISIBILITY
$$



USA.gov is the U.S. government's official web portal to all federal, state and local government web resources and services.